Regional Weather Roundup
Issued by NWS

Home | Current Version | Previous Version | Text Only | Print | Product List | Glossary Off
Versions: 1 2 3 4 5 6 7 8 9 10 11 12 13 14 15 16 17 18 19 20 21 22 23 24 25 26 27 28 29 30 31 32 33 34 35 36 37 38 39 40 41 42 43 44 45 46 47 48 49 50

711
ASUS45 KBOU 080307
RWRCO

WEATHER ROUNDUP FOR COLORADO
NATIONAL WEATHER SERVICE DENVER/BOULDER CO
800 PM MST WED DEC 07 2016

NOTE: "FAIR" INDICATES FEW OR NO CLOUDS BELOW 12000 FEET WITH NO
SIGNIFICANT WEATHER AND/OR OBSTRUCTIONS TO VISIBILITY.

COZ001>005-013-030-031-080400-
...NORTHWEST COLORADO...

CITY           SKY/WX    TMP DP  RH WIND       PRES   REMARKS
CRAIG          FAIR      -2  -8  76 SE3       30.29R
HAYDEN         FAIR      -2  -9  71 CALM      30.26R
MEEKER         FAIR      -3  -8  79 NE5       30.26R WCI -13
MOUNT WERNER   NOT AVBL
STEAMBOAT SPGS FAIR      -1  -4  85 CALM      30.24R
WALDEN           N/A     -9 -15  77 S3        30.17R
$$

COZ006>008-011-080400-
...WEST CENTRAL VALLEYS...

CITY           SKY/WX    TMP DP  RH WIND       PRES   REMARKS
GRAND JUNCTION FAIR      24   8  50 NE10      30.26R WCI  14
MONTROSE       FAIR      15   9  76 SE8       30.27R WCI   4
EAGLE          CLOUDY    11  -1  58 E8        30.28R WCI  -1
RIFLE          FAIR      14   6  70 CALM      30.28R
DELTA          NOT AVBL
NUCLA          FAIR      23  -4  30 CALM      30.26R
$$

COZ017>023-064>068-080400-
...SOUTHWEST COLORADO...

CITY           SKY/WX    TMP DP  RH WIND       PRES   REMARKS
DURANGO        FAIR      20  -1  40 W7        30.16R WCI  11
CORTEZ         FAIR      19   7  59 N6        30.21R WCI  11
PAGOSA SPRINGS FAIR      14  -1  51 NE5       30.15R WCI   6
TELLURIDE      FAIR       7  -2  67 SE6       30.14R WCI  -3
WOLF CREEK PAS FAIR       1  -6  71 SW23G31   30.04S WCI -21
$$

COZ009-010-012-014-032>034-037-058>063-080400-
...CENTRAL COLORADO...

CITY           SKY/WX    TMP DP  RH WIND       PRES   REMARKS
ASPEN          CLOUDY     8   5  87 S5        30.18R WCI   0
BUENA VISTA    FAIR       8  -4  60 NW13      30.15R WCI  -8
COPPER MTN     CLOUDY    -4 -11  71 MISG      29.96R
BERTHOUD PASS  MOCLDY   -13 -24  58 MISG      29.88R HAZE
COTTONWOOD PAS FAIR       9  -6  52 NW5       30.06R WCI   0
GUNNISON       FAIR       8  -4  58 NW3       30.19R
KREMMLING      FAIR       0  -8  71 E3        30.24R
LEADVILLE      LGT SNOW   0  -4  83 VRB3      30.05R FOG
MONARCH PASS   MOCLDY    -4  -8  84 W22       30.07R WCI -28
SALIDA         FAIR      12   5  73 SE8       30.24R WCI   1
SUNLIGHT       FAIR     N/A N/A N/A CALM      30.09S
WILKERSON PASS FAIR      -2  -9  71 NW6       30.01R WCI -14
$$

COZ069>075-080400-
...SAN LUIS VALLEY/SANGRE DE CRISTO MOUNTAINS...

CITY           SKY/WX    TMP DP  RH WIND       PRES   REMARKS
ALAMOSA        FAIR      15  -2  46 N10       30.13R WCI   2
LA VETA PASS   SNOW       0  -4  85 SW8       30.06R VSB 1/2 WCI -15
SAGUACHE       FAIR      16   1  53 N13       30.15R WCI   2
$$

COZ035-036-038>040-080400-
...NORTHERN COLORADO FRONT RANGE...

CITY           SKY/WX    TMP DP  RH WIND       PRES   REMARKS
DENVER INTL AP FAIR       4   0  83 CALM      30.35R
DMNS CITY PARK   N/A      5   2  85 E3G9      30.37R
AURORA         PTCLDY     0  -4  85 SE5       30.34R WCI -10
FRONT RANGE AP NOT AVBL
ERIE MUNI ARPT FAIR      -3  -6  86 CALM      30.38R
BOULDER MUN AP FAIR       5   3  92 CALM      30.36R
CENTENNIAL     MOCLDY     5   2  87 E3        30.32R
BROOMFIELD     MOCLDY     7   3  85 CALM      30.34R
FORT COLLINS   CLOUDY     9   1  72 S8        30.38S WCI  -4
LONGMONT       CLOUDY     9   5  81 CALM      30.40R
$$

COZ041-046-047-076>085-087-088-080400-
...PIKES PEAK/PALMER DIVIDE AND SOUTHERN FOOTHILLS...

CITY           SKY/WX    TMP DP  RH WIND       PRES   REMARKS
COLO. SPRINGS  LGT SNOW   8   4  83 E3        30.30R FOG
A. F. ACADEMY  FLURRIES   5   0  78 N5        30.26R WCI  -4
SCHRIEVER AFB  NOT AVBL
ELLICOTT       MIX PCPN N/A N/A N/A NE5         N/A
FALCON         LGT SNOW   7   2  80 CALM      30.25R
FORT CARSON    CLOUDY    10   5  79 SE7       30.30R WCI   0
LIMON          CLOUDY     5   1  83 NW10      30.35R WCI -10
MONUMENT HILL  CLOUDY     1   0  92 W5        30.25R WCI  -8
TRINIDAD       CLOUDY    16   7  67 E6        30.32R WCI   7
$$

COZ042>045-048>051-090-091-080400-
...NORTHEAST COLORADO...

CITY           SKY/WX    TMP DP  RH WIND       PRES   REMARKS
GREELEY ARPT   FAIR      -3  -8  79 CALM      30.42R
AKRON          FAIR      -4  -9  79 W9        30.39R WCI -20
BURLINGTON     FAIR       1  -5  75 NW12      30.42R WCI -16
WRAY           NOT AVBL
STERLING       FAIR       1  -4  78 NW13      30.43R WCI -16
HOLYOKE        FAIR       9   0  66 W9        30.44R WCI  -5
FORT MORGAN    FAIR      -1  -7  74 W8        30.42R WCI -15
$$

COZ086-089-092>099-080400-
...SOUTHEAST COLORADO...

CITY           SKY/WX    TMP DP  RH WIND       PRES   REMARKS
PUEBLO         LGT SNOW  16   9  74 E12       30.39R WCI   3
LA JUNTA       CLOUDY    18  11  74 E6        30.44R WCI  10
LAMAR          CLOUDY    14   7  73 CALM      30.46R
SPRINGFIELD      N/A     14   9  80 N14       30.39R WCI  -1
$$




USA.gov is the U.S. government's official web portal to all federal, state and local government web resources and services.